Time,TemperatureF,DewpointF,PressureIn,WindDirection,WindDirectionDegrees,WindSpeedMPH,WindSpeedGustMPH,Humidity,HourlyPrecipIn,Conditions,Clouds,dailyrainin,SoftwareType,DateUTC
2013-01-16 00:14:00,33.1,32.0,28.29,South,181,1.0,1.0,96,0.10,,,0.35,weatherlink.com 1.10,2013-01-16 05:14:00,
2013-01-16 00:29:00,33.1,32.0,28.29,SSW,198,0.0,3.0,96,0.07,,,0.35,weatherlink.com 1.10,2013-01-16 05:29:00,
2013-01-16 00:44:00,33.1,32.0,28.30,South,189,0.0,2.0,96,0.08,,,0.37,weatherlink.com 1.10,2013-01-16 05:44:00,
2013-01-16 00:59:00,33.1,32.0,28.30,SSW,197,1.0,2.0,96,0.08,,,0.39,weatherlink.com 1.10,2013-01-16 05:59:00,
2013-01-16 01:14:00,33.2,32.0,28.30,SSW,197,0.0,1.0,96,0.07,,,0.42,weatherlink.com 1.10,2013-01-16 06:14:00,
2013-01-16 01:29:00,33.2,32.0,28.29,SSW,197,0.0,0.0,96,0.08,,,0.43,weatherlink.com 1.10,2013-01-16 06:29:00,
2013-01-16 01:44:00,33.3,32.0,28.29,SSW,197,0.0,1.0,96,0.07,,,0.44,weatherlink.com 1.10,2013-01-16 06:44:00,
2013-01-16 01:59:00,33.2,32.0,28.29,SSW,197,0.0,1.0,96,0.05,,,0.44,weatherlink.com 1.10,2013-01-16 06:59:00,
2013-01-16 02:14:00,33.1,32.0,28.28,SSW,195,0.0,1.0,96,0.02,,,0.44,weatherlink.com 1.10,2013-01-16 07:14:00,
2013-01-16 02:29:00,33.1,32.0,28.27,SSW,195,0.0,0.0,96,0.01,,,0.44,weatherlink.com 1.10,2013-01-16 07:29:00,
2013-01-16 02:44:00,33.2,32.0,28.25,SE,127,1.0,1.0,96,0.00,,,0.44,weatherlink.com 1.10,2013-01-16 07:44:00,
2013-01-16 02:59:00,33.2,32.0,28.26,SSE,150,0.0,0.0,96,0.00,,,0.44,weatherlink.com 1.10,2013-01-16 07:59:00,
2013-01-16 03:14:00,33.2,32.0,28.25,SSE,154,0.0,1.0,96,0.01,,,0.45,weatherlink.com 1.10,2013-01-16 08:14:00,
2013-01-16 03:29:00,33.2,33.0,28.25,SSE,154,0.0,0.0,97,0.01,,,0.45,weatherlink.com 1.10,2013-01-16 08:29:00,
2013-01-16 03:44:00,33.3,33.0,28.23,SSE,154,0.0,0.0,97,0.01,,,0.45,weatherlink.com 1.10,2013-01-16 08:44:00,
2013-01-16 03:59:00,33.4,33.0,28.22,SSE,154,0.0,0.0,97,0.01,,,0.45,weatherlink.com 1.10,2013-01-16 08:59:00,
2013-01-16 04:14:00,33.5,33.0,28.21,SSE,154,0.0,0.0,97,0.00,,,0.45,weatherlink.com 1.10,2013-01-16 09:14:00,
2013-01-16 04:29:00,33.5,33.0,28.21,SSE,154,0.0,0.0,97,0.00,,,0.45,weatherlink.com 1.10,2013-01-16 09:29:00,
2013-01-16 04:44:00,33.6,33.0,28.20,South,188,0.0,1.0,97,0.00,,,0.45,weatherlink.com 1.10,2013-01-16 09:44:00,
2013-01-16 04:59:00,33.8,33.0,28.20,SSW,197,0.0,1.0,97,0.00,,,0.45,weatherlink.com 1.10,2013-01-16 09:59:00,
2013-01-16 05:14:00,33.9,33.0,28.20,SSW,201,1.0,2.0,97,0.01,,,0.46,weatherlink.com 1.10,2013-01-16 10:14:00,
2013-01-16 05:29:00,33.9,33.0,28.20,SSW,200,0.0,2.0,97,0.02,,,0.47,weatherlink.com 1.10,2013-01-16 10:29:00,
2013-01-16 05:44:00,33.9,33.0,28.20,SSW,200,0.0,1.0,97,0.03,,,0.48,weatherlink.com 1.10,2013-01-16 10:44:00,
2013-01-16 05:59:00,34.0,33.0,28.20,SSW,194,0.0,1.0,97,0.04,,,0.49,weatherlink.com 1.10,2013-01-16 10:59:00,
2013-01-16 06:14:00,34.1,33.0,28.19,SSW,194,0.0,1.0,97,0.04,,,0.50,weatherlink.com 1.10,2013-01-16 11:14:00,
2013-01-16 06:29:00,34.2,34.0,28.20,SSW,194,1.0,2.0,97,0.03,,,0.50,weatherlink.com 1.10,2013-01-16 11:29:00,
2013-01-16 06:44:00,34.1,33.0,28.19,SSW,200,0.0,1.0,97,0.03,,,0.51,weatherlink.com 1.10,2013-01-16 11:44:00,
2013-01-16 06:59:00,34.2,34.0,28.19,SSW,200,0.0,0.0,97,0.02,,,0.51,weatherlink.com 1.10,2013-01-16 11:59:00,
2013-01-16 07:14:00,34.2,34.0,28.20,SSW,200,0.0,0.0,97,0.01,,,0.51,weatherlink.com 1.10,2013-01-16 12:14:00,
2013-01-16 07:29:00,34.3,34.0,28.20,SSW,200,0.0,0.0,97,0.01,,,0.51,weatherlink.com 1.10,2013-01-16 12:29:00,
2013-01-16 07:44:00,34.3,34.0,28.20,SSW,200,0.0,0.0,97,0.01,,,0.52,weatherlink.com 1.10,2013-01-16 12:44:00,
2013-01-16 07:59:00,34.3,34.0,28.21,SSW,200,0.0,0.0,97,0.01,,,0.52,weatherlink.com 1.10,2013-01-16 12:59:00,
2013-01-16 08:14:00,34.4,34.0,28.22,SSW,200,0.0,0.0,97,0.01,,,0.52,weatherlink.com 1.10,2013-01-16 13:14:00,
2013-01-16 08:29:00,34.6,34.0,28.21,SSW,200,0.0,0.0,97,0.02,,,0.53,weatherlink.com 1.10,2013-01-16 13:29:00,
2013-01-16 08:44:00,34.7,34.0,28.21,SSW,200,0.0,0.0,97,0.02,,,0.54,weatherlink.com 1.10,2013-01-16 13:44:00,
2013-01-16 08:59:00,34.9,34.0,28.22,South,188,1.0,1.0,97,0.03,,,0.55,weatherlink.com 1.10,2013-01-16 13:59:00,
2013-01-16 09:14:00,35.3,35.0,28.21,South,188,0.0,0.0,97,0.04,,,0.56,weatherlink.com 1.10,2013-01-16 14:14:00,
2013-01-16 09:29:00,35.9,35.0,28.20,South,190,0.0,1.0,97,0.03,,,0.56,weatherlink.com 1.10,2013-01-16 14:29:00,
2013-01-16 09:44:00,36.8,36.0,28.21,South,190,0.0,1.0,97,0.02,,,0.56,weatherlink.com 1.10,2013-01-16 14:44:00,
2013-01-16 09:59:00,37.9,37.0,28.20,ENE,64,3.0,3.0,98,0.01,,,0.56,weatherlink.com 1.10,2013-01-16 14:59:00,
2013-01-16 10:15:00,39.3,39.0,28.18,ENE,74,0.0,1.0,98,0.00,,,0.56,weatherlink.com 1.10,2013-01-16 15:15:00,
2013-01-16 10:30:00,40.1,39.0,28.17,South,184,1.0,2.0,97,0.00,,,0.56,weatherlink.com 1.10,2013-01-16 15:30:00,
2013-01-16 10:45:00,40.7,40.0,28.14,South,185,0.0,1.0,97,0.00,,,0.56,weatherlink.com 1.10,2013-01-16 15:45:00,
2013-01-16 11:00:00,41.7,41.0,28.12,SE,133,0.0,4.0,97,0.00,,,0.56,weatherlink.com 1.10,2013-01-16 16:00:00,
2013-01-16 11:15:00,42.8,42.0,28.10,ESE,120,1.0,6.0,95,0.00,,,0.56,weatherlink.com 1.10,2013-01-16 16:15:00,
2013-01-16 11:30:00,43.6,42.0,28.07,SSE,160,1.0,7.0,94,0.00,,,0.56,weatherlink.com 1.10,2013-01-16 16:30:00,
2013-01-16 11:45:00,44.2,43.0,28.07,ENE,64,4.0,5.0,94,0.00,,,0.56,weatherlink.com 1.10,2013-01-16 16:45:00,
2013-01-16 12:00:00,44.9,43.0,28.07,SSE,162,1.0,7.0,92,0.00,,,0.56,weatherlink.com 1.10,2013-01-16 17:00:00,
2013-01-16 12:15:00,45.8,44.0,28.05,South,174,0.0,6.0,92,0.00,,,0.56,weatherlink.com 1.10,2013-01-16 17:15:00,
2013-01-16 12:30:00,46.2,44.0,28.04,WSW,255,1.0,4.0,91,0.01,,,0.57,weatherlink.com 1.10,2013-01-16 17:30:00,
2013-01-16 12:45:00,46.6,44.0,28.05,ESE,117,2.0,6.0,90,0.01,,,0.57,weatherlink.com 1.10,2013-01-16 17:45:00,
2013-01-16 13:00:00,47.0,44.0,28.06,SE,142,0.0,5.0,90,0.01,,,0.57,weatherlink.com 1.10,2013-01-16 18:00:00,
2013-01-16 13:15:00,47.6,45.0,28.03,SSE,163,1.0,4.0,90,0.00,,,0.57,weatherlink.com 1.10,2013-01-16 18:15:00,
2013-01-16 13:30:00,47.6,45.0,28.03,SW,218,0.0,2.0,89,0.00,,,0.57,weatherlink.com 1.10,2013-01-16 18:30:00,
2013-01-16 13:45:00,47.8,46.0,28.07,SSE,163,0.0,2.0,92,0.00,,,0.57,weatherlink.com 1.10,2013-01-16 18:45:00,
2013-01-16 14:00:00,47.8,46.0,28.07,West,262,0.0,2.0,92,0.00,,,0.57,weatherlink.com 1.10,2013-01-16 19:00:00,
2013-01-16 14:15:00,48.8,45.0,28.07,WSW,240,2.0,5.0,88,0.00,,,0.57,weatherlink.com 1.10,2013-01-16 19:15:00,
2013-01-16 14:30:00,48.1,44.0,28.10,WSW,249,5.0,7.0,86,0.00,,,0.57,weatherlink.com 1.10,2013-01-16 19:30:00,
2013-01-16 14:45:00,48.1,44.0,28.11,WSW,238,0.0,4.0,87,0.00,,,0.57,weatherlink.com 1.10,2013-01-16 19:45:00,
2013-01-16 15:00:00,48.5,44.0,28.11,WSW,245,0.0,2.0,85,0.00,,,0.57,weatherlink.com 1.10,2013-01-16 20:00:00,
2013-01-16 15:15:00,48.8,45.0,28.10,SW,214,1.0,1.0,87,0.00,,,0.57,weatherlink.com 1.10,2013-01-16 20:15:00,
2013-01-16 15:30:00,48.4,44.0,28.09,SSW,207,0.0,5.0,85,0.00,,,0.57,weatherlink.com 1.10,2013-01-16 20:30:00,
2013-01-16 15:45:00,49.7,44.0,28.13,WSW,245,2.0,7.0,82,0.00,,,0.57,weatherlink.com 1.10,2013-01-16 20:45:00,
2013-01-16 16:00:00,48.8,45.0,28.12,WSW,238,1.0,2.0,85,0.00,,,0.57,weatherlink.com 1.10,2013-01-16 21:00:00,
2013-01-16 16:15:00,48.6,44.0,28.14,SW,231,0.0,1.0,85,0.00,,,0.57,weatherlink.com 1.10,2013-01-16 21:15:00,
2013-01-16 16:30:00,48.3,43.0,28.15,ESE,103,2.0,3.0,81,0.00,,,0.57,weatherlink.com 1.10,2013-01-16 21:30:00,
2013-01-16 16:45:00,48.1,42.0,28.16,SSE,159,1.0,6.0,78,0.00,,,0.57,weatherlink.com 1.10,2013-01-16 21:45:00,
2013-01-16 17:00:00,47.4,42.0,28.16,SSW,210,0.0,2.0,81,0.00,,,0.57,weatherlink.com 1.10,2013-01-16 22:00:00,
2013-01-16 17:15:00,46.7,40.0,28.17,SE,132,3.0,5.0,77,0.00,,,0.57,weatherlink.com 1.10,2013-01-16 22:15:00,
2013-01-16 17:30:00,46.2,40.0,28.17,South,176,0.0,2.0,80,0.00,,,0.57,weatherlink.com 1.10,2013-01-16 22:30:00,
2013-01-16 17:45:00,45.9,40.0,28.16,SSE,158,1.0,5.0,80,0.00,,,0.57,weatherlink.com 1.10,2013-01-16 22:45:00,
2013-01-16 18:00:00,45.8,39.0,28.18,SSE,156,0.0,6.0,78,0.00,,,0.57,weatherlink.com 1.10,2013-01-16 23:00:00,
2013-01-16 18:15:00,45.3,39.0,28.19,SE,134,4.0,7.0,79,0.00,,,0.57,weatherlink.com 1.10,2013-01-16 23:15:00,
2013-01-16 18:31:00,45.2,39.0,28.20,ESE,121,4.0,5.0,78,0.00,,,0.57,weatherlink.com 1.10,2013-01-16 23:31:00,
2013-01-16 18:46:00,45.0,39.0,28.20,West,268,0.0,1.0,79,0.00,,,0.57,weatherlink.com 1.10,2013-01-16 23:46:00,
2013-01-16 19:01:00,44.7,39.0,28.20,SSE,150,2.0,6.0,79,0.00,,,0.57,weatherlink.com 1.10,2013-01-17 00:01:00,
2013-01-16 19:16:00,44.5,38.0,28.20,SSE,168,1.0,5.0,79,0.00,,,0.57,weatherlink.com 1.10,2013-01-17 00:16:00,
2013-01-16 19:31:00,44.4,39.0,28.20,SSE,162,0.0,3.0,80,0.00,,,0.57,weatherlink.com 1.10,2013-01-17 00:31:00,
2013-01-16 19:46:00,44.6,38.0,28.20,SSE,165,0.0,6.0,78,0.00,,,0.57,weatherlink.com 1.10,2013-01-17 00:46:00,
2013-01-16 20:01:00,44.5,39.0,28.20,South,181,0.0,2.0,81,0.00,,,0.57,weatherlink.com 1.10,2013-01-17 01:01:00,
2013-01-16 20:16:00,44.1,39.0,28.18,SE,146,3.0,4.0,81,0.00,,,0.57,weatherlink.com 1.10,2013-01-17 01:16:00,
2013-01-16 20:31:00,44.4,39.0,28.19,SSE,167,0.0,2.0,81,0.00,,,0.00,weatherlink.com 1.10,2013-01-17 01:31:00,
2013-01-16 20:46:00,43.9,39.0,28.18,South,169,0.0,1.0,84,0.00,,,0.00,weatherlink.com 1.10,2013-01-17 01:46:00,
2013-01-16 21:01:00,43.5,40.0,28.18,South,169,0.0,0.0,86,0.00,,,0.00,weatherlink.com 1.10,2013-01-17 02:01:00,
2013-01-16 21:16:00,43.1,40.0,28.19,South,174,0.0,1.0,88,0.00,,,0.00,weatherlink.com 1.10,2013-01-17 02:16:00,
2013-01-16 21:31:00,42.7,40.0,28.20,South,174,0.0,0.0,89,0.00,,,0.00,weatherlink.com 1.10,2013-01-17 02:31:00,
2013-01-16 21:46:00,42.6,40.0,28.20,WSW,249,0.0,1.0,91,0.00,,,0.00,weatherlink.com 1.10,2013-01-17 02:46:00,
2013-01-16 22:01:00,42.5,40.0,28.19,West,259,1.0,1.0,91,0.00,,,0.00,weatherlink.com 1.10,2013-01-17 03:01:00,
2013-01-16 22:16:00,42.5,40.0,28.20,West,281,0.0,1.0,92,0.00,,,0.00,weatherlink.com 1.10,2013-01-17 03:16:00,
2013-01-16 22:31:00,42.2,40.0,28.18,SSW,211,0.0,1.0,92,0.00,,,0.00,weatherlink.com 1.10,2013-01-17 03:31:00,
2013-01-16 22:46:00,42.3,40.0,28.18,WSW,255,1.0,1.0,92,0.00,,,0.00,weatherlink.com 1.10,2013-01-17 03:46:00,
2013-01-16 23:01:00,42.1,40.0,28.17,SW,231,0.0,2.0,93,0.00,,,0.00,weatherlink.com 1.10,2013-01-17 04:01:00,
2013-01-16 23:16:00,42.0,40.0,28.17,South,176,0.0,3.0,92,0.00,,,0.00,weatherlink.com 1.10,2013-01-17 04:16:00,
2013-01-16 23:31:00,42.7,39.0,28.20,SSW,200,0.0,2.0,88,0.00,,,0.00,weatherlink.com 1.10,2013-01-17 04:31:00,
2013-01-16 23:46:00,43.4,38.0,28.20,NW,311,0.0,3.0,80,0.00,,,0.00,weatherlink.com 1.10,2013-01-17 04:46:00,